Погода в Кожаре-Яндобе

Россия / Чувашская Республика     55°41′39″N   47°01′37″E
темп.,
°C
ветер,
м/с
пор.,
м/с
влажн.,
%
обл.,
%
осадки,
мм/ч
давл.,
гПа
погр.,
м
9 мая, вс
вс900:00+10юв5138985 0.0 1011281
03:00+9юв4108992 0.0 1011159
06:00+12ююв41082100 0.0 1010280
09:00+13ююв51274100 0.0 1010374
12:00+20ююв71157100 0.0 10101444
15:00+17ююв5971100 0.6 1011738
18:00+17ююв61274100 1.6 1010394
21:00+13зюз3792100 4.1 1012201
10 мая, пн
пн1000:00+10зюз379599 0.0 1015262
03:00+9зюз2595100 0.0 1017169
06:00+10зсз3593100 0.1 1019227
09:00+11ссз5592100 0.2 1021433
12:00+9ссз5793100 1.0 1024375
15:00+8с61093100 2.1 1025421
18:00+8ссв5990100 0.0 1026508
21:00+8ссв5990100 0.0 1028561
11 мая, вт
вт1100:00+7ссв588995 0.0 1029491
03:00+5ссв599596 0.0 1029395
06:00+7св698699 0.0 1030499
09:00+11св56736 0.0 1031639
12:00+16св556020 0.0 1030885
15:00+18всв555377 0.0 10291004
18:00+16всв356863 0.0 1030146
21:00+11св488199 0.0 1030115
12 мая, ср
ср1200:00+9всв48801 0.0 1031137
03:00+9всв48810 0.0 1030133
06:00+11всв410810 0.0 1030250
09:00+17в57675 0.0 1030527
12:00+20в56615 0.0 10301007
15:00+22в555854 0.0 10291348
18:00+19в367221 0.0 1029182
21:00+14в477920 0.0 1028111
13 мая, чт
чт1300:00+13в35695 0.0 102872
03:00+11в467078 0.0 102883
06:00+13в38734 0.0 1028205
09:00+18вюв5757100 0.0 1028478
12:00+22вюв5651100 0.0 1027927
15:00+22юв575391 0.0 10261419
18:00+20вюв377161 0.0 1025190
21:00+16юв338196 0.0 102535